Staples, MN

2:53 PM CDT on May 29, 2017 (GMT -0500)
Staples Municipal

Weather History for KSAZ - June, 2013

Change the Weather History Date:

Sunday, June 23, 2013

  Actual Average Record
Temperature  
Mean Temperature 68 °F -  
Max Temperature 75 °F 74 °F 93 °F (2005)
Min Temperature 60 °F 54 °F 44 °F (2004)
Cooling Degree Days 2    
Growing Degree Days 18 (Base 50)    
Moisture  
Dew Point 60 °F    
Average Humidity 79    
Maximum Humidity 100    
Minimum Humidity 50    
Precipitation  
Precipitation 0.23 in - - ()
Sea Level Pressure  
Sea Level Pressure 29.76 in    
Wind  
Wind Speed 8 mph (SSW)    
Max Wind Speed 22 mph    
Max Gust Speed 30 mph    
Visibility 8 miles    
Events Rain , Thunderstorm    
Averages and records for this station are not official NWS values.
T = Trace of Precipitation, MM = Missing Value Source: NWS Daily Summary

Daily Weather History Graph

Daily Weather History Graph

Search for Another Location

Airport or City:

Trip Planner

Search our weather history database for the weather conditions in past years. The results will help you decide how hot, cold, wet, or windy it might be!

Date:

Astronomy

Jun. 23, 2013 Rise Set
Actual Time 5:27 AM CDT 9:15 PM CDT
Civil Twilight 4:48 AM CDT 9:54 PM CDT
Nautical Twilight 3:55 AM CDT 10:47 PM CDT
Astronomical Twilight 2:39 AM CDT 12:03 AM CDT
Moon 9:22 PM CDT (6/23) 5:50 AM CDT (6/23)
Length of Visible Light 17h 06m
Length of Day
15h 48m
Full, 100% of the Moon is Illuminated
Jun 23
Full
Jun 29
Last Quarter
Jul 8
New
Jul 15
First Quarter
Jul 22
Full

Hourly Weather History & Observations

Time (CDT) Temp. Dew Point Humidity Pressure Visibility Wind Dir Wind Speed Gust Speed Precip Events Conditions
12:14 AM 62.6 °F 60.8 °F 94% 29.83 in 5.0 mi East 6.9 mph - N/A   Overcast
12:33 AM 62.6 °F 62.6 °F 100% 29.82 in 5.0 mi East 4.6 mph - N/A   Overcast
12:53 AM 62.6 °F 62.6 °F 100% 29.81 in 7.0 mi East 4.6 mph - N/A   Overcast
1:14 AM 62.6 °F 60.8 °F 94% 29.81 in 7.0 mi East 6.9 mph - N/A   Overcast
1:33 AM 62.6 °F 60.8 °F 94% 29.83 in 7.0 mi East 6.9 mph - N/A   Overcast
1:53 AM 62.6 °F 60.8 °F 94% 29.82 in 7.0 mi East 4.6 mph - N/A   Overcast
2:14 AM 62.6 °F 60.8 °F 94% 29.82 in 4.0 mi East 3.5 mph - N/A   Overcast
2:33 AM 62.6 °F 60.8 °F 94% 29.81 in 2.0 mi East 3.5 mph - N/A   Overcast
2:53 AM 62.6 °F 60.8 °F 94% 29.80 in 1.8 mi ESE 4.6 mph - N/A   Overcast
3:14 AM 62.6 °F 60.8 °F 94% 29.79 in 1.8 mi ESE 4.6 mph - N/A   Overcast
3:33 AM 62.6 °F 60.8 °F 94% 29.76 in 1.5 mi ENE 5.8 mph - N/A   Overcast
3:53 AM 60.8 °F 60.8 °F 100% 29.76 in 1.2 mi East 6.9 mph - N/A   Overcast
4:14 AM 60.8 °F 60.8 °F 100% 29.77 in 1.2 mi ESE 4.6 mph - N/A Thunderstorm Overcast
4:33 AM 60.8 °F 60.8 °F 100% 29.76 in 1.8 mi ESE 3.5 mph - N/A Thunderstorm Overcast
4:54 AM 60.8 °F 60.8 °F 100% 29.76 in 2.5 mi ESE 4.6 mph - N/A   Light Drizzle
5:13 AM 60.8 °F 60.8 °F 100% 29.76 in 4.0 mi SE 4.6 mph - 0.01 in Rain , Thunderstorm Thunderstorms and Rain
5:33 AM 62.6 °F 60.8 °F 94% 29.75 in 4.0 mi ESE 4.6 mph - 0.08 in Rain , Thunderstorm Thunderstorms and Rain
5:54 AM 60.8 °F 60.8 °F 100% 29.76 in 7.0 mi East 4.6 mph - 0.13 in Rain , Thunderstorm Rain
6:14 AM 60.8 °F 60.8 °F 100% 29.72 in 7.0 mi ENE 6.9 mph - 0.08 in Rain Rain
6:32 AM 60.8 °F 60.8 °F 100% 29.62 in 7.0 mi NE 8.1 mph 17.3 mph 0.10 in Rain Light Rain
6:51 AM 60.8 °F 60.8 °F 100% 29.62 in 10.0 mi Calm Calm - 0.10 in   Overcast
7:13 AM 60.8 °F 60.8 °F 100% 29.60 in 10.0 mi North 3.5 mph - N/A   Mostly Cloudy
7:34 AM 60.8 °F 60.8 °F 100% 29.69 in 10.0 mi WSW 8.1 mph - N/A   Scattered Clouds
7:53 AM 62.6 °F 60.8 °F 94% 29.70 in 10.0 mi SW 4.6 mph - N/A   Scattered Clouds
8:14 AM 62.6 °F 60.8 °F 94% 29.70 in 10.0 mi Calm Calm - N/A   Overcast
8:31 AM 62.6 °F 62.6 °F 100% 29.68 in 10.0 mi Calm Calm - N/A   Overcast
8:54 AM 64.4 °F 62.6 °F 94% 29.66 in 10.0 mi Calm Calm - N/A   Mostly Cloudy
9:13 AM 64.4 °F 62.6 °F 94% 29.66 in 10.0 mi SSW 3.5 mph - N/A   Scattered Clouds
9:33 AM 66.2 °F 64.4 °F 94% 29.67 in 10.0 mi SSW 8.1 mph - N/A   Mostly Cloudy
9:54 AM 68.0 °F 64.4 °F 88% 29.68 in 10.0 mi SSW 6.9 mph - N/A   Mostly Cloudy
10:12 AM 69.8 °F 64.4 °F 83% 29.68 in 10.0 mi SW 10.4 mph - N/A   Mostly Cloudy
10:34 AM 69.8 °F 62.6 °F 78% 29.68 in 10.0 mi SW 13.8 mph 25.3 mph N/A   Overcast
10:53 AM 69.8 °F 62.6 °F 78% 29.69 in 10.0 mi WSW 21.9 mph 29.9 mph N/A   Overcast
11:14 AM 71.6 °F 62.6 °F 73% 29.69 in 10.0 mi WSW 17.3 mph 25.3 mph N/A   Overcast
11:33 AM 71.6 °F 62.6 °F 73% 29.69 in 10.0 mi WSW 18.4 mph 25.3 mph N/A   Scattered Clouds
11:53 AM 73.4 °F 62.6 °F 69% 29.69 in 10.0 mi WSW 15.0 mph 26.5 mph N/A   Scattered Clouds
12:14 PM 73.4 °F 62.6 °F 69% 29.71 in 10.0 mi WSW 16.1 mph 26.5 mph N/A   Scattered Clouds
12:33 PM 73.4 °F 62.6 °F 69% 29.71 in 10.0 mi WSW 19.6 mph 24.2 mph N/A   Scattered Clouds
12:53 PM 73.4 °F 62.6 °F 69% 29.72 in 10.0 mi WSW 17.3 mph 21.9 mph N/A   Mostly Cloudy
1:14 PM 71.6 °F 60.8 °F 69% 29.73 in 10.0 mi WSW 17.3 mph 21.9 mph N/A   Mostly Cloudy
1:33 PM 73.4 °F 60.8 °F 65% 29.73 in 10.0 mi SW 16.1 mph 26.5 mph N/A   Mostly Cloudy
1:54 PM 73.4 °F 60.8 °F 65% 29.74 in 10.0 mi WSW 16.1 mph 24.2 mph N/A   Mostly Cloudy
2:13 PM 73.4 °F 60.8 °F 65% 29.75 in 10.0 mi SW 16.1 mph 24.2 mph N/A   Scattered Clouds
2:33 PM 73.4 °F 60.8 °F 65% 29.75 in 10.0 mi WSW 18.4 mph 24.2 mph N/A   Scattered Clouds
2:54 PM 75.2 °F 60.8 °F 61% 29.76 in 10.0 mi WSW 16.1 mph 21.9 mph N/A   Scattered Clouds
3:13 PM 73.4 °F 60.8 °F 65% 29.76 in 10.0 mi WSW 12.7 mph 21.9 mph N/A   Mostly Cloudy
3:33 PM 73.4 °F 60.8 °F 65% 29.77 in 10.0 mi WSW 12.7 mph 20.7 mph N/A   Scattered Clouds
3:53 PM 73.4 °F 60.8 °F 65% 29.77 in 10.0 mi WSW 11.5 mph 20.7 mph N/A   Scattered Clouds
4:13 PM 73.4 °F 60.8 °F 65% 29.77 in 10.0 mi SW 10.4 mph - N/A   Mostly Cloudy
4:33 PM 75.2 °F 59.0 °F 57% 29.77 in 10.0 mi WSW 15.0 mph 20.7 mph N/A   Scattered Clouds
4:53 PM 75.2 °F 60.8 °F 61% 29.77 in 10.0 mi SW 11.5 mph 19.6 mph N/A   Scattered Clouds
5:13 PM 75.2 °F 59.0 °F 57% 29.77 in 10.0 mi WSW 11.5 mph - N/A   Scattered Clouds
5:33 PM 75.2 °F 60.8 °F 61% 29.77 in 10.0 mi WSW 16.1 mph 19.6 mph N/A   Scattered Clouds
5:53 PM 75.2 °F 59.0 °F 57% 29.76 in 10.0 mi SW 10.4 mph 18.4 mph N/A   Scattered Clouds
6:14 PM 75.2 °F 59.0 °F 57% 29.77 in 10.0 mi SW 11.5 mph 20.7 mph N/A   Scattered Clouds
6:33 PM 75.2 °F 59.0 °F 57% 29.77 in 10.0 mi SW 12.7 mph 17.3 mph N/A   Scattered Clouds
6:53 PM 75.2 °F 57.2 °F 53% 29.78 in 10.0 mi SW 13.8 mph 19.6 mph N/A   Scattered Clouds
7:14 PM 75.2 °F 55.4 °F 50% 29.79 in 10.0 mi WSW 15.0 mph 20.7 mph N/A   Clear
7:33 PM 73.4 °F 55.4 °F 53% 29.79 in 10.0 mi WSW 9.2 mph - N/A   Clear
7:53 PM 73.4 °F 55.4 °F 53% 29.81 in 10.0 mi WSW 8.1 mph - N/A   Clear
8:14 PM 71.6 °F 55.4 °F 57% 29.81 in 10.0 mi WSW 11.5 mph - N/A   Clear
8:33 PM 71.6 °F 55.4 °F 57% 29.82 in 10.0 mi SW 8.1 mph - N/A   Clear
8:53 PM 69.8 °F 57.2 °F 64% 29.82 in 10.0 mi SSW 5.8 mph - N/A   Clear
9:14 PM 68.0 °F 57.2 °F 68% 29.82 in 10.0 mi SSW 4.6 mph - N/A   Clear
9:33 PM 66.2 °F 57.2 °F 73% 29.83 in 10.0 mi SSW 4.6 mph - N/A   Clear
9:54 PM 64.4 °F 57.2 °F 77% 29.84 in 10.0 mi SSW 5.8 mph - N/A   Clear
10:13 PM 66.2 °F 57.2 °F 73% 29.84 in 10.0 mi SW 4.6 mph - N/A   Clear
10:34 PM 62.6 °F 57.2 °F 82% 29.85 in 10.0 mi SSW 3.5 mph - N/A   Clear
10:53 PM 64.4 °F 57.2 °F 77% 29.86 in 10.0 mi SW 4.6 mph - N/A   Clear
11:13 PM 62.6 °F 57.2 °F 82% 29.86 in 10.0 mi SSW 3.5 mph - N/A   Clear
11:34 PM 60.8 °F 57.2 °F 88% 29.86 in 10.0 mi SSW 3.5 mph - N/A   Clear
11:53 PM 60.8 °F 57.2 °F 88% 29.86 in 10.0 mi SSW 3.5 mph - N/A   Clear